This demonstration page uses our WeatherBlox Daily Observations layout. Learn more.

Left ArrowRight Arrow

39.51506, -84.39828

Hourly Observations for August 14, 2022

Temp ( °F °C ) Dew Point ( °F °C ) Humidity (%) Winds ( mph kmh ) Pressure ( in mb ) Visibility ( mi km ) Precip ( " mm )
12:15 am 00:15 Partly Cloudy 66 19 65 18.3 96 96 Calm 30.05 1017 10 16 0.00 0.00
12:35 am 00:35 Clear 65 18.5 64 18 97 97 Calm 30.05 1018 10 16 0.00 0.00
12:55 am 00:55 Clear 64 17.8 N/A N/A Calm 30.05 1018 10 16 0.00 0.00
1:15 am 01:15 Clear 63 17.2 63 17 99 99 Calm 30.05 1018 10 16 0.00 0.00
1:35 am 01:35 Clear 63 17.2 63 17.1 99 99 Calm 30.04 1017 10 16 0.00 0.00
1:55 am 01:55 Clear 63 17 N/A N/A Calm 30.04 1017 10 16 0.00 0.00
2:15 am 02:15 Clear 63 17.2 N/A N/A Calm 30.03 1017 10 16 0.00 0.00
2:35 am 02:35 Clear 62 16.7 N/A N/A Calm 30.02 1017 10 16 0.00 0.00
2:55 am 02:55 Clear 62 16.4 N/A N/A Calm 30.02 1017 10 16 0.00 0.00
3:15 am 03:15 Clear 61 16.2 N/A N/A Calm 30.01 1016 10 16 0.00 0.00
3:35 am 03:35 Partly Cloudy 61 16.1 N/A N/A Calm 30.01 1016 10 16 0.00 0.00
3:55 am 03:55 Partly Cloudy 61 16 N/A N/A Calm 30.01 1016 10 16 0.00 0.00
4:15 am 04:15 Clear 61 15.9 N/A N/A Calm 30.02 1016 10 16 0.00 0.00
4:35 am 04:35 Clear 60 15.6 N/A N/A NNW 3 6 30.02 1016 10 16 0.00 0.00
4:55 am 04:55 Clear 60 15.6 N/A N/A Calm 30.00 1016 10 16 0.00 0.00
5:15 am 05:15 Clear 60 15.5 N/A N/A Calm 30.00 1016 10 16 0.00 0.00
5:35 am 05:35 Clear 59 15 N/A N/A Calm 30.00 1016 10 16 0.00 0.00
5:55 am 05:55 Clear 60 15.4 N/A N/A Calm 30.00 1016 10 16 0.00 0.00
6:15 am 06:15 Clear 60 15.3 N/A N/A Calm 29.99 1015 10 16 0.00 0.00
6:35 am 06:35 Partly Cloudy 61 16.3 N/A N/A Calm 29.99 1016 10 16 0.00 0.00
6:55 am 06:55 Mostly Cloudy 62 16.7 N/A N/A Calm 29.99 1016 10 16 0.00 0.00
7:15 am 07:15 Cloudy 63 17.4 N/A N/A Calm 29.98 1015 10 16 0.00 0.00
7:35 am 07:35 Cloudy 64 18 64 17.8 99 99 Calm 29.97 1015 10 16 0.00 0.00
7:55 am 07:55 Mostly Cloudy 66 18.7 62 16.9 89 89 Calm 29.97 1015 10 16 0.00 0.00
8:15 am 08:15 Mostly Cloudy 67 19.3 64 17.7 90 90 ENE 3 6 29.97 1015 10 16 0.00 0.00
8:35 am 08:35 Cloudy with Rain 66 19 65 18.2 95 95 WNW 8 13 30.03 1017 10 16 0.00 0.00
8:55 am 08:55 Cloudy with Light Rain 65 18.4 65 18.3 99 99 S 3 6 30.01 1016 7 11 0.00 0.00
9:15 am 09:15 Cloudy with Rain 65 18.6 65 18.4 99 99 S 5 7 30.00 1016 5 8 0.00 0.00
9:35 am 09:35 Cloudy with Light Rain 66 18.8 65 18.6 99 99 S 6 9 29.99 1015 10 16 0.00 0.00
9:55 am 09:55 Cloudy with Light Rain 66 18.9 65 18.6 98 98 Calm 29.99 1015 10 16 0.00 0.00
10:15 am 10:15 Cloudy 66 19 66 18.9 99 99 SSW 5 7 30.00 1016 10 16 0.00 0.00
10:35 am 10:35 Cloudy 66 19 66 19 100 100 Calm 29.99 1015 10 16 0.00 0.00
10:55 am 10:55 Cloudy 67 19.6 67 19.2 98 98 SSW 8 13 29.98 1015 10 16 0.00 0.00
11:15 am 11:15 Cloudy 67 19.7 66 18.9 95 95 S 7 11 29.98 1015 10 16 0.00 0.00
11:30 am 11:30 Cloudy 68 20.1 66 18.9 93 93 SSE 5 7 29.98 1015 10 16 0.00 0.00
11:55 am 11:55 Cloudy 69 20.8 64 18 84 84 SSE 6 9 29.96 1015 10 16 0.00 0.00
12:15 pm 12:15 Cloudy 70 20.9 65 18.3 85 85 S 7 11 29.96 1015 10 16 0.00 0.00
12:35 pm 12:35 Cloudy 70 21.2 65 18.3 84 84 S 8 13 29.95 1014 10 16 0.00 0.00
12:55 pm 12:55 Cloudy 71 21.5 65 18.1 81 81 SSE 8 13 29.94 1014 10 16 0.00 0.00
1:15 pm 13:15 Cloudy 72 22.1 65 18.2 79 79 SSE 9 15 29.94 1014 10 16 0.00 0.00
1:35 pm 13:35 Cloudy 73 22.6 65 18.1 76 76 SSE 3 6 29.93 1013 10 16 0.00 0.00
1:55 pm 13:55 Mostly Cloudy 73 23 66 18.7 77 77 ESE 7 11 29.93 1013 10 16 0.00 0.00
2:15 pm 14:15 Mostly Cloudy 74 23.3 64 17.8 71 71 SSE 9 15 29.92 1013 10 16 0.00 0.00
2:35 pm 14:35 Cloudy 75 23.8 65 18.1 70 70 S 7 11 29.91 1013 10 16 0.00 0.00
2:55 pm 14:55 Cloudy 75 24 64 17.5 67 67 S 10 17 29.90 1013 10 16 0.00 0.00
3:15 pm 15:15 Cloudy 75 23.9 64 17.6 68 68 SSE 9 15 29.90 1012 10 16 0.00 0.00
3:35 pm 15:35 Cloudy with Nearby Thunderstorms 75 24 63 17.4 67 67 S 8 13 29.90 1012 10 16 0.00 0.00
3:55 pm 15:55 Cloudy 75 24.1 64 17.6 67 67 S 6 9 29.90 1012 10 16 0.00 0.00
4:15 pm 16:15 Cloudy 76 24.3 65 18.1 68 68 ESE 7 11 29.89 1012 10 16 0.00 0.00
4:35 pm 16:35 Cloudy 76 24.6 65 18.2 68 68 E 5 7 29.89 1012 10 16 0.00 0.00
4:55 pm 16:55 Cloudy 75 24.1 64 17.8 68 68 SE 5 7 29.90 1012 10 16 0.00 0.00
5:15 pm 17:15 Cloudy with Light Rain 74 23.5 65 18.1 72 72 SE 6 9 29.90 1012 10 16 0.00 0.00
5:35 pm 17:35 Cloudy 74 23.3 65 18.6 75 75 ENE 3 6 29.90 1012 10 16 0.00 0.00
5:55 pm 17:55 Cloudy with Light Rain 73 22.6 69 20.7 89 89 E 6 9 29.90 1012 10 16 0.00 0.00
6:15 pm 18:15 Cloudy 72 22.4 69 20.8 91 91 ENE 5 7 29.90 1013 10 16 0.00 0.00
6:35 pm 18:35 Cloudy 72 22.2 70 21.3 95 95 Calm 29.91 1013 10 16 0.00 0.00
6:55 pm 18:55 Cloudy with Light Rain 71 21.9 70 21.3 96 96 ENE 3 6 29.90 1013 5 8 0.00 0.00
7:15 pm 19:15 Cloudy 71 21.7 68 20.2 91 91 E 6 9 29.90 1013 10 16 0.00 0.00
7:40 pm 19:40 Cloudy 71 21.4 67 19.5 89 89 E 3 6 29.91 1013 10 16 0.00 0.00
7:55 pm 19:55 Cloudy 71 21.4 66 19.1 87 87 E 3 6 29.91 1013 10 16 0.00 0.00
8:15 pm 20:15 Cloudy with Rain 70 21.1 66 19.1 88 88 E 3 6 29.91 1013 10 16 0.00 0.00
8:35 pm 20:35 Cloudy 70 20.9 67 19.4 91 91 Calm 29.91 1013 10 16 0.00 0.00
8:55 pm 20:55 Cloudy with Light Rain 69 20.7 68 20 96 96 ENE 3 6 29.91 1013 10 16 0.00 0.00
9:15 pm 21:15 Cloudy with Light Rain 69 20.4 67 19.7 96 96 NE 6 9 29.92 1013 10 16 0.00 0.00
9:35 pm 21:35 Cloudy with Light Rain 68 19.8 67 19.5 98 98 NE 6 9 29.93 1013 5 8 0.00 0.00
9:55 pm 21:55 Cloudy 67 19.6 67 19.3 98 98 ENE 5 7 29.93 1013 10 16 0.00 0.00
10:15 pm 22:15 Cloudy 67 19.6 66 19.1 97 97 NE 6 9 29.93 1013 10 16 0.00 0.00
10:35 pm 22:35 Cloudy 67 19.6 67 19.4 99 99 Calm 29.93 1013 10 16 0.00 0.00
10:55 pm 22:55 Cloudy 67 19.6 67 19.3 98 98 Calm 29.93 1013 10 16 0.00 0.00
11:15 pm 23:15 Cloudy 67 19.7 67 19.4 98 98 Calm 29.94 1014 10 16 0.00 0.00
11:35 pm 23:35 Cloudy 67 19.7 67 19.3 98 98 NE 3 6 29.94 1014 10 16 0.00 0.00
11:55 pm 23:55 Cloudy 67 19.5 66 19 97 97 ENE 6 9 29.93 1013 10 16 0.00 0.00

Powered by AerisWeather